Year,Month,Day,Hour,Minute,Value (Times are PST for temperature in C)
2007,12,08,00,00,2.20
2007,12,08,00,01,2.20
2007,12,08,00,02,2.20
2007,12,08,00,03,2.20
2007,12,08,00,04,2.20
2007,12,08,00,05,2.20
2007,12,08,00,06,2.20
2007,12,08,00,07,2.20
2007,12,08,00,08,2.20
2007,12,08,00,09,2.20
2007,12,08,00,10,2.20
2007,12,08,00,11,2.20
2007,12,08,00,12,2.20
2007,12,08,00,13,2.20
2007,12,08,00,14,2.20
2007,12,08,00,15,2.20
2007,12,08,00,16,2.20
2007,12,08,00,17,2.20
2007,12,08,00,18,2.20
2007,12,08,00,19,2.20
2007,12,08,00,20,2.20
2007,12,08,00,21,2.20
2007,12,08,00,22,2.20
2007,12,08,00,23,2.20
2007,12,08,00,24,2.10
2007,12,08,00,25,2.10
2007,12,08,00,26,2.10
2007,12,08,00,27,2.10
2007,12,08,00,28,2.00
2007,12,08,00,29,2.00
2007,12,08,00,30,2.00
2007,12,08,00,31,2.00
2007,12,08,00,32,2.00
2007,12,08,00,33,2.10
2007,12,08,00,34,2.10
2007,12,08,00,35,2.10
2007,12,08,00,36,2.10
2007,12,08,00,37,2.10
2007,12,08,00,38,2.10
2007,12,08,00,39,2.10
2007,12,08,00,40,2.10
2007,12,08,00,41,2.10
2007,12,08,00,42,2.10
2007,12,08,00,43,2.10
2007,12,08,00,44,2.10
2007,12,08,00,45,2.10
2007,12,08,00,46,2.10
2007,12,08,00,47,2.10
2007,12,08,00,48,2.10
2007,12,08,00,49,2.10
2007,12,08,00,50,2.10
2007,12,08,00,51,2.10
2007,12,08,00,52,2.10
2007,12,08,00,53,2.00
2007,12,08,00,54,2.00
2007,12,08,00,55,2.00
2007,12,08,00,56,2.00
2007,12,08,00,57,2.00
2007,12,08,00,58,2.00
2007,12,08,00,59,1.90
2007,12,08,01,00,1.90
2007,12,08,01,01,1.90
2007,12,08,01,02,1.90
2007,12,08,01,03,1.90
2007,12,08,01,04,1.90
2007,12,08,01,05,2.00
2007,12,08,01,06,2.00
2007,12,08,01,07,2.00
2007,12,08,01,08,2.00
2007,12,08,01,09,2.00
2007,12,08,01,10,2.00
2007,12,08,01,11,2.10
2007,12,08,01,12,2.10
2007,12,08,01,13,2.10
2007,12,08,01,14,2.10
2007,12,08,01,15,2.20
2007,12,08,01,16,2.20
2007,12,08,01,17,2.20
2007,12,08,01,18,2.20
2007,12,08,01,19,2.20
2007,12,08,01,20,2.20
2007,12,08,01,21,2.20
2007,12,08,01,22,2.20
2007,12,08,01,23,2.20
2007,12,08,01,24,2.20
2007,12,08,01,25,2.20
2007,12,08,01,26,2.20
2007,12,08,01,27,2.20
2007,12,08,01,28,2.20
2007,12,08,01,29,2.20
2007,12,08,01,30,2.20
2007,12,08,01,31,2.20
2007,12,08,01,32,2.20
2007,12,08,01,33,2.20
2007,12,08,01,34,2.20
2007,12,08,01,35,2.20
2007,12,08,01,36,2.20
2007,12,08,01,37,2.20
2007,12,08,01,38,2.20
2007,12,08,01,39,2.20
2007,12,08,01,40,2.20
2007,12,08,01,41,2.10
2007,12,08,01,42,2.10
2007,12,08,01,43,2.10
2007,12,08,01,44,2.10
2007,12,08,01,45,2.10
2007,12,08,01,46,2.10
2007,12,08,01,47,2.10
2007,12,08,01,48,2.10
2007,12,08,01,49,2.10
2007,12,08,01,50,2.10
2007,12,08,01,51,2.10
2007,12,08,01,52,2.10
2007,12,08,01,53,2.10
2007,12,08,01,54,2.10
2007,12,08,01,55,2.00
2007,12,08,01,56,2.00
2007,12,08,01,57,2.00
2007,12,08,01,58,2.00
2007,12,08,01,59,1.90
2007,12,08,02,00,1.90
2007,12,08,02,01,1.90
2007,12,08,02,02,1.90
2007,12,08,02,03,1.90
2007,12,08,02,04,1.90
2007,12,08,02,05,1.80
2007,12,08,02,06,1.80
2007,12,08,02,07,1.80
2007,12,08,02,08,1.80
2007,12,08,02,09,1.80
2007,12,08,02,10,1.80
2007,12,08,02,11,1.80
2007,12,08,02,12,1.80
2007,12,08,02,13,1.70
2007,12,08,02,14,1.70
2007,12,08,02,15,1.70
2007,12,08,02,16,1.60
2007,12,08,02,17,1.60
2007,12,08,02,18,1.60
2007,12,08,02,19,1.60
2007,12,08,02,20,1.50
2007,12,08,02,21,1.50
2007,12,08,02,22,1.50
2007,12,08,02,23,1.50
2007,12,08,02,24,1.50
2007,12,08,02,25,1.50
2007,12,08,02,26,1.50
2007,12,08,02,27,1.50
2007,12,08,02,28,1.40
2007,12,08,02,29,1.40
2007,12,08,02,30,1.40
2007,12,08,02,31,1.40
2007,12,08,02,32,1.30
2007,12,08,02,33,1.30
2007,12,08,02,34,1.30
2007,12,08,02,35,1.30
2007,12,08,02,36,1.30
2007,12,08,02,37,1.30
2007,12,08,02,38,1.30
2007,12,08,02,39,1.30
2007,12,08,02,40,1.20
2007,12,08,02,41,1.20
2007,12,08,02,42,1.10
2007,12,08,02,43,1.00
2007,12,08,02,44,1.00
2007,12,08,02,45,0.90
2007,12,08,02,46,0.80
2007,12,08,02,47,0.80
2007,12,08,02,48,0.80
2007,12,08,02,49,0.70
2007,12,08,02,50,0.70
2007,12,08,02,51,0.60
2007,12,08,02,52,0.60
2007,12,08,02,53,0.50
2007,12,08,02,54,0.50
2007,12,08,02,55,0.40
2007,12,08,02,56,0.40
2007,12,08,02,57,0.40
2007,12,08,02,58,0.40
2007,12,08,02,59,0.40
2007,12,08,03,00,0.50
2007,12,08,03,01,0.50
2007,12,08,03,02,0.50
2007,12,08,03,03,0.50
2007,12,08,03,04,0.50
2007,12,08,03,05,0.50
2007,12,08,03,06,0.50
2007,12,08,03,07,0.40
2007,12,08,03,08,0.50
2007,12,08,03,09,0.50
2007,12,08,03,10,0.50
2007,12,08,03,11,0.50
2007,12,08,03,12,0.50
2007,12,08,03,13,0.50
2007,12,08,03,14,0.60
2007,12,08,03,15,0.60
2007,12,08,03,16,0.60
2007,12,08,03,17,0.60
2007,12,08,03,18,0.60
2007,12,08,03,19,0.60
2007,12,08,03,20,0.60
2007,12,08,03,21,0.60
2007,12,08,03,22,0.60
2007,12,08,03,23,0.60
2007,12,08,03,24,0.50
2007,12,08,03,25,0.50
2007,12,08,03,26,0.50
2007,12,08,03,27,0.50
2007,12,08,03,28,0.40
2007,12,08,03,29,0.40
2007,12,08,03,30,0.30
2007,12,08,03,31,0.20
2007,12,08,03,32,0.20
2007,12,08,03,33,0.10
2007,12,08,03,34,0.10
2007,12,08,03,35,0.10
2007,12,08,03,36,0.10
2007,12,08,03,37,0.00
2007,12,08,03,38,-0.10
2007,12,08,03,39,-0.10
2007,12,08,03,40,-0.20
2007,12,08,03,41,-0.30
2007,12,08,03,42,-0.30
2007,12,08,03,43,-0.30
2007,12,08,03,44,-0.40
2007,12,08,03,45,-0.40
2007,12,08,03,46,-0.40
2007,12,08,03,47,-0.40
2007,12,08,03,48,-0.40
2007,12,08,03,49,-0.50
2007,12,08,03,50,-0.60
2007,12,08,03,51,-0.60
2007,12,08,03,52,-0.60
2007,12,08,03,53,-0.70
2007,12,08,03,54,-0.70
2007,12,08,03,55,-0.80
2007,12,08,03,56,-0.90
2007,12,08,03,57,-0.90
2007,12,08,03,58,-0.90
2007,12,08,03,59,-1.00
2007,12,08,04,00,-1.10
2007,12,08,04,01,-1.10
2007,12,08,04,02,-1.10
2007,12,08,04,03,-1.10
2007,12,08,04,04,-1.10
2007,12,08,04,05,-1.10
2007,12,08,04,06,-1.10
2007,12,08,04,07,-1.10
2007,12,08,04,08,-1.20
2007,12,08,04,09,-1.20
2007,12,08,04,10,-1.20
2007,12,08,04,11,-1.20
2007,12,08,04,12,-1.20
2007,12,08,04,13,-1.30
2007,12,08,04,14,-1.30
2007,12,08,04,15,-1.30
2007,12,08,04,16,-1.30
2007,12,08,04,17,-1.30
2007,12,08,04,18,-1.30
2007,12,08,04,19,-1.30
2007,12,08,04,20,-1.40
2007,12,08,04,21,-1.40
2007,12,08,04,22,-1.40
2007,12,08,04,23,-1.40
2007,12,08,04,24,-1.40
2007,12,08,04,25,-1.40
2007,12,08,04,26,-1.50
2007,12,08,04,27,-1.50
2007,12,08,04,28,-1.60
2007,12,08,04,29,-1.60
2007,12,08,04,30,-1.60
2007,12,08,04,31,-1.70
2007,12,08,04,32,-1.70
2007,12,08,04,33,-1.70
2007,12,08,04,34,-1.70
2007,12,08,04,35,-1.70
2007,12,08,04,36,-1.70
2007,12,08,04,37,-1.70
2007,12,08,04,38,-1.70
2007,12,08,04,39,-1.70
2007,12,08,04,40,-1.70
2007,12,08,04,41,-1.70
2007,12,08,04,42,-1.70
2007,12,08,04,43,-1.70
2007,12,08,04,44,-1.80
2007,12,08,04,45,-1.80
2007,12,08,04,46,-1.80
2007,12,08,04,47,-1.80
2007,12,08,04,48,-1.80
2007,12,08,04,49,-1.80
2007,12,08,04,50,-1.80
2007,12,08,04,51,-1.80
2007,12,08,04,52,-1.80
2007,12,08,04,53,-1.80
2007,12,08,04,54,-1.80
2007,12,08,04,55,-1.80
2007,12,08,04,56,-1.80
2007,12,08,04,57,-1.80
2007,12,08,04,58,-1.80
2007,12,08,04,59,-1.90
2007,12,08,05,00,-1.90
2007,12,08,05,01,-1.90
2007,12,08,05,02,-1.90
2007,12,08,05,03,-1.90
2007,12,08,05,04,-1.90
2007,12,08,05,05,-1.90
2007,12,08,05,06,-1.90
2007,12,08,05,07,-1.90
2007,12,08,05,08,-1.90
2007,12,08,05,09,-1.90
2007,12,08,05,10,-1.90
2007,12,08,05,11,-1.90
2007,12,08,05,12,-1.90
2007,12,08,05,13,-1.90
2007,12,08,05,14,-1.90
2007,12,08,05,15,-1.90
2007,12,08,05,16,-1.90
2007,12,08,05,17,-2.00
2007,12,08,05,18,-2.00
2007,12,08,05,19,-2.00
2007,12,08,05,20,-2.00
2007,12,08,05,21,-2.10
2007,12,08,05,22,-2.10
2007,12,08,05,23,-2.10
2007,12,08,05,24,-2.10
2007,12,08,05,25,-2.20
2007,12,08,05,26,-2.20
2007,12,08,05,27,-2.20
2007,12,08,05,28,-2.20
2007,12,08,05,29,-2.20
2007,12,08,05,30,-2.30
2007,12,08,05,31,-2.30
2007,12,08,05,32,-2.30
2007,12,08,05,33,-2.30
2007,12,08,05,34,-2.30
2007,12,08,05,35,-2.30
2007,12,08,05,36,-2.30
2007,12,08,05,37,-2.30
2007,12,08,05,38,-2.30
2007,12,08,05,39,-2.30
2007,12,08,05,40,-2.30
2007,12,08,05,41,-2.30
2007,12,08,05,42,-2.30
2007,12,08,05,43,-2.30
2007,12,08,05,44,-2.30
2007,12,08,05,45,-2.30
2007,12,08,05,46,-2.30
2007,12,08,05,47,-2.40
2007,12,08,05,48,-2.40
2007,12,08,05,49,-2.40
2007,12,08,05,50,-2.40
2007,12,08,05,51,-2.40
2007,12,08,05,52,-2.40
2007,12,08,05,53,-2.40
2007,12,08,05,54,-2.40
2007,12,08,05,55,-2.40
2007,12,08,05,56,-2.40
2007,12,08,05,57,-2.50
2007,12,08,05,58,-2.50
2007,12,08,05,59,-2.50
2007,12,08,06,00,-2.50
2007,12,08,06,01,-2.50
2007,12,08,06,02,-2.60
2007,12,08,06,03,-2.60
2007,12,08,06,04,-2.60
2007,12,08,06,05,-2.60
2007,12,08,06,06,-2.60
2007,12,08,06,07,-2.70
2007,12,08,06,08,-2.70
2007,12,08,06,09,-2.70
2007,12,08,06,10,-2.70
2007,12,08,06,11,-2.70
2007,12,08,06,12,-2.70
2007,12,08,06,13,-2.70
2007,12,08,06,14,-2.70
2007,12,08,06,15,-2.70
2007,12,08,06,16,-2.70
2007,12,08,06,17,-2.70
2007,12,08,06,18,-2.70
2007,12,08,06,19,-2.70
2007,12,08,06,20,-2.70
2007,12,08,06,21,-2.80
2007,12,08,06,22,-2.80
2007,12,08,06,23,-2.80
2007,12,08,06,24,-2.80
2007,12,08,06,25,-2.80
2007,12,08,06,26,-2.80
2007,12,08,06,27,-2.80
2007,12,08,06,28,-2.80
2007,12,08,06,29,-2.80
2007,12,08,06,30,-2.70
2007,12,08,06,31,-2.70
2007,12,08,06,32,-2.70
2007,12,08,06,33,-2.70
2007,12,08,06,34,-2.70
2007,12,08,06,35,-2.70
2007,12,08,06,36,-2.70
2007,12,08,06,37,-2.80
2007,12,08,06,38,-2.80
2007,12,08,06,39,-2.80
2007,12,08,06,40,-2.80
2007,12,08,06,41,-2.80
2007,12,08,06,42,-2.80
2007,12,08,06,43,-2.80
2007,12,08,06,44,-2.90
2007,12,08,06,45,-2.90
2007,12,08,06,46,-2.90
2007,12,08,06,47,-2.90
2007,12,08,06,48,-2.90
2007,12,08,06,49,-2.90
2007,12,08,06,50,-2.90
2007,12,08,06,51,-2.90
2007,12,08,06,52,-2.80
2007,12,08,06,53,-2.80
2007,12,08,06,54,-2.80
2007,12,08,06,55,-2.80
2007,12,08,06,56,-2.80
2007,12,08,06,57,-2.80
2007,12,08,06,58,-2.90
2007,12,08,06,59,-2.90
2007,12,08,07,00,-2.90
2007,12,08,07,01,-2.90
2007,12,08,07,02,-2.90
2007,12,08,07,03,-3.00
2007,12,08,07,04,-3.00
2007,12,08,07,05,-3.00
2007,12,08,07,06,-3.00
2007,12,08,07,07,-3.00
2007,12,08,07,08,-3.00
2007,12,08,07,09,-3.00
2007,12,08,07,10,-3.00
2007,12,08,07,11,-3.00
2007,12,08,07,12,-3.00
2007,12,08,07,13,-3.00
2007,12,08,07,14,-3.00
2007,12,08,07,15,-3.00
2007,12,08,07,16,-3.00
2007,12,08,07,17,-3.00
2007,12,08,07,18,-3.00
2007,12,08,07,19,-3.00
2007,12,08,07,20,-3.10
2007,12,08,07,21,-3.10
2007,12,08,07,22,-3.10
2007,12,08,07,23,-3.10
2007,12,08,07,24,-3.20
2007,12,08,07,25,-3.20
2007,12,08,07,26,-3.20
2007,12,08,07,27,-3.20
2007,12,08,07,28,-3.30
2007,12,08,07,29,-3.30
2007,12,08,07,30,-3.30
2007,12,08,07,31,-3.30
2007,12,08,07,32,-3.30
2007,12,08,07,33,-3.30
2007,12,08,07,34,-3.30
2007,12,08,07,35,-3.30
2007,12,08,07,36,-3.30
2007,12,08,07,37,-3.30
2007,12,08,07,38,-3.30
2007,12,08,07,39,-3.30
2007,12,08,07,40,-3.30
2007,12,08,07,41,-3.30
2007,12,08,07,42,-3.30
2007,12,08,07,43,-3.30
2007,12,08,07,44,-3.30
2007,12,08,07,45,-3.30
2007,12,08,07,46,-3.30
2007,12,08,07,47,-3.30
2007,12,08,07,48,-3.30
2007,12,08,07,49,-3.40
2007,12,08,07,50,-3.40
2007,12,08,07,51,-3.40
2007,12,08,07,52,-3.50
2007,12,08,07,53,-3.50
2007,12,08,07,54,-3.50
2007,12,08,07,55,-3.50
2007,12,08,07,56,-3.50
2007,12,08,07,57,-3.50
2007,12,08,07,58,-3.50
2007,12,08,07,59,-3.50
2007,12,08,08,00,-3.40
2007,12,08,08,01,-3.40
2007,12,08,08,02,-3.40
2007,12,08,08,03,-3.40
2007,12,08,08,04,-3.40
2007,12,08,08,05,-3.40
2007,12,08,08,06,-3.40
2007,12,08,08,07,-3.40
2007,12,08,08,08,-3.40
2007,12,08,08,09,-3.40
2007,12,08,08,10,-3.40
2007,12,08,08,11,-3.40
2007,12,08,08,12,-3.40
2007,12,08,08,13,-3.40
2007,12,08,08,14,-3.40
2007,12,08,08,15,-3.40
2007,12,08,08,16,-3.40
2007,12,08,08,17,-3.40
2007,12,08,08,18,-3.30
2007,12,08,08,19,-3.30
2007,12,08,08,20,-3.30
2007,12,08,08,21,-3.30
2007,12,08,08,22,-3.30
2007,12,08,08,23,-3.30
2007,12,08,08,24,-3.30
2007,12,08,08,25,-3.30
2007,12,08,08,26,-3.30
2007,12,08,08,27,-3.30
2007,12,08,08,28,-3.30
2007,12,08,08,29,-3.30
2007,12,08,08,30,-3.30
2007,12,08,08,31,-3.30
2007,12,08,08,32,-3.30
2007,12,08,08,33,-3.30
2007,12,08,08,34,-3.30
2007,12,08,08,35,-3.30
2007,12,08,08,36,-3.30
2007,12,08,08,37,-3.30
2007,12,08,08,38,-3.30
2007,12,08,08,39,-3.30
2007,12,08,08,40,-3.30
2007,12,08,08,41,-3.30
2007,12,08,08,42,-3.30
2007,12,08,08,43,-3.30
2007,12,08,08,44,-3.30
2007,12,08,08,45,-3.30
2007,12,08,08,46,-3.30
2007,12,08,08,47,-3.30
2007,12,08,08,48,-3.30
2007,12,08,08,49,-3.30
2007,12,08,08,50,-3.30
2007,12,08,08,51,-3.30
2007,12,08,08,52,-3.30
2007,12,08,08,53,-3.30
2007,12,08,08,54,-3.30
2007,12,08,08,55,-3.20
2007,12,08,08,56,-3.10
2007,12,08,08,57,-3.10
2007,12,08,08,58,-3.00
2007,12,08,08,59,-3.00
2007,12,08,09,00,-2.90
2007,12,08,09,01,-2.80
2007,12,08,09,02,-2.80
2007,12,08,09,03,-2.80
2007,12,08,09,04,-2.70
2007,12,08,09,05,-2.60
2007,12,08,09,06,-2.50
2007,12,08,09,07,-2.40
2007,12,08,09,08,-2.30
2007,12,08,09,09,-2.20
2007,12,08,09,10,-2.10
2007,12,08,09,11,-2.00
2007,12,08,09,12,-1.90
2007,12,08,09,13,-1.80
2007,12,08,09,14,-1.80
2007,12,08,09,15,-1.70
2007,12,08,09,16,-1.70
2007,12,08,09,17,-1.60
2007,12,08,09,18,-1.60
2007,12,08,09,19,-1.60
2007,12,08,09,20,-1.50
2007,12,08,09,21,-1.50
2007,12,08,09,22,-1.50
2007,12,08,09,23,-1.40
2007,12,08,09,24,-1.40
2007,12,08,09,25,-1.30
2007,12,08,09,26,-1.20
2007,12,08,09,27,-1.10
2007,12,08,09,28,-1.10
2007,12,08,09,29,-1.10
2007,12,08,09,30,-1.10
2007,12,08,09,31,-1.10
2007,12,08,09,32,-1.10
2007,12,08,09,33,-1.10
2007,12,08,09,34,-1.00
2007,12,08,09,35,-0.90
2007,12,08,09,36,-0.90
2007,12,08,09,37,-0.90
2007,12,08,09,38,-0.80
2007,12,08,09,39,-0.70
2007,12,08,09,40,-0.60
2007,12,08,09,41,-0.50
2007,12,08,09,42,-0.40
2007,12,08,09,43,-0.40
2007,12,08,09,44,-0.30
2007,12,08,09,45,-0.30
2007,12,08,09,46,-0.20
2007,12,08,09,47,-0.20
2007,12,08,09,48,-0.10
2007,12,08,09,49,-0.10
2007,12,08,09,50,-0.10
2007,12,08,09,51,-0.10
2007,12,08,09,52,0.00
2007,12,08,09,53,0.10
2007,12,08,09,54,0.10
2007,12,08,09,55,0.10
2007,12,08,09,56,0.20
2007,12,08,09,57,0.30
2007,12,08,09,58,0.40
2007,12,08,09,59,0.50
2007,12,08,10,00,0.50
2007,12,08,10,01,0.60
2007,12,08,10,02,0.70
2007,12,08,10,03,0.70
2007,12,08,10,04,0.80
2007,12,08,10,05,0.80
2007,12,08,10,06,0.80
2007,12,08,10,07,0.90
2007,12,08,10,08,1.00
2007,12,08,10,09,1.00
2007,12,08,10,10,1.10
2007,12,08,10,11,1.20
2007,12,08,10,12,1.30
2007,12,08,10,13,1.30
2007,12,08,10,14,1.30
2007,12,08,10,15,1.30
2007,12,08,10,16,1.30
2007,12,08,10,17,1.40
2007,12,08,10,18,1.50
2007,12,08,10,19,1.40
2007,12,08,10,20,1.40
2007,12,08,10,21,1.50
2007,12,08,10,22,1.50
2007,12,08,10,23,1.60
2007,12,08,10,24,1.70
2007,12,08,10,25,1.70
2007,12,08,10,26,1.80
2007,12,08,10,27,1.80
2007,12,08,10,28,1.90
2007,12,08,10,29,1.90
2007,12,08,10,30,2.00
2007,12,08,10,31,2.10
2007,12,08,10,32,2.10
2007,12,08,10,33,2.20
2007,12,08,10,34,2.20
2007,12,08,10,35,2.30
2007,12,08,10,36,2.40
2007,12,08,10,37,2.50
2007,12,08,10,38,2.70
2007,12,08,10,39,2.70
2007,12,08,10,40,2.80
2007,12,08,10,41,2.90
2007,12,08,10,42,2.90
2007,12,08,10,43,3.00
2007,12,08,10,44,3.10
2007,12,08,10,45,3.20
2007,12,08,10,46,3.30
2007,12,08,10,47,3.30
2007,12,08,10,48,3.30
2007,12,08,10,49,3.30
2007,12,08,10,50,3.40
2007,12,08,10,51,3.40
2007,12,08,10,52,3.50
2007,12,08,10,53,3.50
2007,12,08,10,54,3.60
2007,12,08,10,55,3.60
2007,12,08,10,56,3.70
2007,12,08,10,57,3.70
2007,12,08,10,58,3.80
2007,12,08,10,59,3.90
2007,12,08,11,00,3.90
2007,12,08,11,01,4.00
2007,12,08,11,02,4.00
2007,12,08,11,03,4.00
2007,12,08,11,04,4.10
2007,12,08,11,05,4.20
2007,12,08,11,06,4.20
2007,12,08,11,07,4.20
2007,12,08,11,08,4.20
2007,12,08,11,09,4.20
2007,12,08,11,10,4.30
2007,12,08,11,11,4.30
2007,12,08,11,12,4.30
2007,12,08,11,13,4.30
2007,12,08,11,14,4.20
2007,12,08,11,15,4.20
2007,12,08,11,16,4.20
2007,12,08,11,17,4.20
2007,12,08,11,18,4.20
2007,12,08,11,19,4.20
2007,12,08,11,20,4.20
2007,12,08,11,21,4.20
2007,12,08,11,22,4.30
2007,12,08,11,23,4.30
2007,12,08,11,24,4.30
2007,12,08,11,25,4.20
2007,12,08,11,26,4.20
2007,12,08,11,27,4.20
2007,12,08,11,28,4.20
2007,12,08,11,29,4.20
2007,12,08,11,30,4.20
2007,12,08,11,31,4.20
2007,12,08,11,32,4.20
2007,12,08,11,33,4.20
2007,12,08,11,34,4.30
2007,12,08,11,35,4.30
2007,12,08,11,36,4.30
2007,12,08,11,37,4.40
2007,12,08,11,38,4.40
2007,12,08,11,39,4.40
2007,12,08,11,40,4.30
2007,12,08,11,41,4.40
2007,12,08,11,42,4.40
2007,12,08,11,43,4.30
2007,12,08,11,44,4.30
2007,12,08,11,45,4.30
2007,12,08,11,46,4.30
2007,12,08,11,47,4.30
2007,12,08,11,48,4.30
2007,12,08,11,49,4.40
2007,12,08,11,50,4.40
2007,12,08,11,51,4.40
2007,12,08,11,52,4.40
2007,12,08,11,53,4.40
2007,12,08,11,54,4.40
2007,12,08,11,55,4.40
2007,12,08,11,56,4.40
2007,12,08,11,57,4.40
2007,12,08,11,58,4.50
2007,12,08,11,59,4.50
2007,12,08,12,00,4.50
2007,12,08,12,01,4.60
2007,12,08,12,02,4.60
2007,12,08,12,03,4.60
2007,12,08,12,04,4.60
2007,12,08,12,05,4.70
2007,12,08,12,06,4.70
2007,12,08,12,07,4.70
2007,12,08,12,08,4.70
2007,12,08,12,09,4.80
2007,12,08,12,10,4.70
2007,12,08,12,11,4.70
2007,12,08,12,12,4.80
2007,12,08,12,13,4.80
2007,12,08,12,14,4.80
2007,12,08,12,15,4.80
2007,12,08,12,16,4.80
2007,12,08,12,17,4.80
2007,12,08,12,18,4.80
2007,12,08,12,19,4.80
2007,12,08,12,20,4.80
2007,12,08,12,21,4.90
2007,12,08,12,22,4.90
2007,12,08,12,23,4.90
2007,12,08,12,24,4.90
2007,12,08,12,25,4.90
2007,12,08,12,26,4.90
2007,12,08,12,27,4.90
2007,12,08,12,28,5.00
2007,12,08,12,29,5.10
2007,12,08,12,30,5.10
2007,12,08,12,31,5.10
2007,12,08,12,32,5.10
2007,12,08,12,33,5.10
2007,12,08,12,34,5.10
2007,12,08,12,35,5.10
2007,12,08,12,36,5.10
2007,12,08,12,37,5.10
2007,12,08,12,38,5.10
2007,12,08,12,39,5.10
2007,12,08,12,40,5.10
2007,12,08,12,41,5.00
2007,12,08,12,42,4.90
2007,12,08,12,43,4.90
2007,12,08,12,44,4.90
2007,12,08,12,45,4.90
2007,12,08,12,46,4.90
2007,12,08,12,47,4.90
2007,12,08,12,48,4.90
2007,12,08,12,49,4.90
2007,12,08,12,50,4.90
2007,12,08,12,51,4.90
2007,12,08,12,52,4.90
2007,12,08,12,53,4.90
2007,12,08,12,54,4.90
2007,12,08,12,55,4.80
2007,12,08,12,56,4.80
2007,12,08,12,57,4.80
2007,12,08,12,58,4.80
2007,12,08,12,59,4.80
2007,12,08,13,00,4.80
2007,12,08,13,01,4.80
2007,12,08,13,02,4.80
2007,12,08,13,03,4.80
2007,12,08,13,04,4.80
2007,12,08,13,05,4.80
2007,12,08,13,06,4.80
2007,12,08,13,07,4.80
2007,12,08,13,08,4.90
2007,12,08,13,09,4.90
2007,12,08,13,10,4.90
2007,12,08,13,11,4.90
2007,12,08,13,12,4.90
2007,12,08,13,13,4.90
2007,12,08,13,14,4.80
2007,12,08,13,15,4.80
2007,12,08,13,16,4.80
2007,12,08,13,17,4.80
2007,12,08,13,18,4.80
2007,12,08,13,19,4.80
2007,12,08,13,20,4.80
2007,12,08,13,21,4.80
2007,12,08,13,22,4.80
2007,12,08,13,23,4.90
2007,12,08,13,24,4.90
2007,12,08,13,25,4.90
2007,12,08,13,26,4.90
2007,12,08,13,27,5.10
2007,12,08,13,28,5.10
2007,12,08,13,29,5.10
2007,12,08,13,30,5.10
2007,12,08,13,31,5.10
2007,12,08,13,32,5.10
2007,12,08,13,33,5.10
2007,12,08,13,34,5.10
2007,12,08,13,35,5.10
2007,12,08,13,36,5.10
2007,12,08,13,37,5.10
2007,12,08,13,38,5.00
2007,12,08,13,39,4.90
2007,12,08,13,40,4.90
2007,12,08,13,41,4.90
2007,12,08,13,42,4.90
2007,12,08,13,43,4.90
2007,12,08,13,44,4.90
2007,12,08,13,45,4.90
2007,12,08,13,46,4.90
2007,12,08,13,47,4.90
2007,12,08,13,48,4.90
2007,12,08,13,49,4.90
2007,12,08,13,50,5.00
2007,12,08,13,51,5.10
2007,12,08,13,52,5.10
2007,12,08,13,53,5.10
2007,12,08,13,54,5.10
2007,12,08,13,55,5.10
2007,12,08,13,56,5.10
2007,12,08,13,57,5.10
2007,12,08,13,58,5.10
2007,12,08,13,59,5.20
2007,12,08,14,00,5.20
2007,12,08,14,01,5.20
2007,12,08,14,02,5.20
2007,12,08,14,03,5.30
2007,12,08,14,04,5.30
2007,12,08,14,05,5.30
2007,12,08,14,06,5.30
2007,12,08,14,07,5.30
2007,12,08,14,08,5.30
2007,12,08,14,09,5.30
2007,12,08,14,10,5.30
2007,12,08,14,11,5.30
2007,12,08,14,12,5.30
2007,12,08,14,13,5.30
2007,12,08,14,14,5.30
2007,12,08,14,15,5.40
2007,12,08,14,16,5.40
2007,12,08,14,17,5.40
2007,12,08,14,18,5.40
2007,12,08,14,19,5.40
2007,12,08,14,20,5.40
2007,12,08,14,21,5.40
2007,12,08,14,22,5.40
2007,12,08,14,23,5.40
2007,12,08,14,24,5.40
2007,12,08,14,25,5.40
2007,12,08,14,26,5.30
2007,12,08,14,27,5.30
2007,12,08,14,28,5.30
2007,12,08,14,29,5.30
2007,12,08,14,30,5.20
2007,12,08,14,31,5.20
2007,12,08,14,32,5.10
2007,12,08,14,33,5.10
2007,12,08,14,34,5.10
2007,12,08,14,35,5.10
2007,12,08,14,36,5.10
2007,12,08,14,37,5.10
2007,12,08,14,38,5.10
2007,12,08,14,39,5.10
2007,12,08,14,40,5.10
2007,12,08,14,41,5.10
2007,12,08,14,42,5.10
2007,12,08,14,43,5.10
2007,12,08,14,44,5.10
2007,12,08,14,45,5.10
2007,12,08,14,46,5.10
2007,12,08,14,47,5.10
2007,12,08,14,48,5.10
2007,12,08,14,49,5.10
2007,12,08,14,50,5.10
2007,12,08,14,51,5.10
2007,12,08,14,52,5.10
2007,12,08,14,53,5.10
2007,12,08,14,54,5.10
2007,12,08,14,55,5.10
2007,12,08,14,56,5.00
2007,12,08,14,57,4.90
2007,12,08,14,58,4.90
2007,12,08,14,59,4.90
2007,12,08,15,00,4.90
2007,12,08,15,01,4.90
2007,12,08,15,02,4.90
2007,12,08,15,03,4.90
2007,12,08,15,04,4.90
2007,12,08,15,05,4.80
2007,12,08,15,06,4.80
2007,12,08,15,07,4.80
2007,12,08,15,08,4.80
2007,12,08,15,09,4.80
2007,12,08,15,10,4.80
2007,12,08,15,11,4.80
2007,12,08,15,12,4.80
2007,12,08,15,13,4.80
2007,12,08,15,14,4.80
2007,12,08,15,15,4.80
2007,12,08,15,16,4.80
2007,12,08,15,17,4.80
2007,12,08,15,18,4.80
2007,12,08,15,19,4.80
2007,12,08,15,20,4.80
2007,12,08,15,21,4.80
2007,12,08,15,22,4.80
2007,12,08,15,23,4.80
2007,12,08,15,24,4.70
2007,12,08,15,25,4.70
2007,12,08,15,26,4.60
2007,12,08,15,27,4.60
2007,12,08,15,28,4.50
2007,12,08,15,29,4.40
2007,12,08,15,30,4.40
2007,12,08,15,31,4.30
2007,12,08,15,32,4.20
2007,12,08,15,33,4.10
2007,12,08,15,34,4.00
2007,12,08,15,35,4.00
2007,12,08,15,36,3.90
2007,12,08,15,37,3.90
2007,12,08,15,38,3.80
2007,12,08,15,39,3.80
2007,12,08,15,40,3.70
2007,12,08,15,41,3.60
2007,12,08,15,42,3.60
2007,12,08,15,43,3.50
2007,12,08,15,44,3.50
2007,12,08,15,45,3.40
2007,12,08,15,46,3.30
2007,12,08,15,47,3.30
2007,12,08,15,48,3.30
2007,12,08,15,49,3.30
2007,12,08,15,50,3.20
2007,12,08,15,51,3.20
2007,12,08,15,52,3.20
2007,12,08,15,53,3.20
2007,12,08,15,54,3.10
2007,12,08,15,55,3.10
2007,12,08,15,56,3.10
2007,12,08,15,57,3.00
2007,12,08,15,58,2.90
2007,12,08,15,59,2.90
2007,12,08,16,00,2.80
2007,12,08,16,01,2.80
2007,12,08,16,02,2.70
2007,12,08,16,03,2.70
2007,12,08,16,04,2.70
2007,12,08,16,05,2.70
2007,12,08,16,06,2.60
2007,12,08,16,07,2.60
2007,12,08,16,08,2.50
2007,12,08,16,09,2.40
2007,12,08,16,10,2.30
2007,12,08,16,11,2.20
2007,12,08,16,12,2.20
2007,12,08,16,13,2.20
2007,12,08,16,14,2.10
2007,12,08,16,15,2.10
2007,12,08,16,16,2.00
2007,12,08,16,17,2.00
2007,12,08,16,18,2.00
2007,12,08,16,19,1.90
2007,12,08,16,20,1.90
2007,12,08,16,21,1.90
2007,12,08,16,22,1.90
2007,12,08,16,23,1.80
2007,12,08,16,24,1.80
2007,12,08,16,25,1.80
2007,12,08,16,26,1.80
2007,12,08,16,27,1.80
2007,12,08,16,28,1.70
2007,12,08,16,29,1.70
2007,12,08,16,30,1.60
2007,12,08,16,31,1.60
2007,12,08,16,32,1.60
2007,12,08,16,33,1.50
2007,12,08,16,34,1.50
2007,12,08,16,35,1.40
2007,12,08,16,36,1.40
2007,12,08,16,37,1.30
2007,12,08,16,38,1.30
2007,12,08,16,39,1.30
2007,12,08,16,40,1.30
2007,12,08,16,41,1.20
2007,12,08,16,42,1.20
2007,12,08,16,43,1.10
2007,12,08,16,44,1.00
2007,12,08,16,45,1.00
2007,12,08,16,46,0.90
2007,12,08,16,47,0.90
2007,12,08,16,48,0.80
2007,12,08,16,49,0.80
2007,12,08,16,50,0.80
2007,12,08,16,51,0.70
2007,12,08,16,52,0.70
2007,12,08,16,53,0.70
2007,12,08,16,54,0.60
2007,12,08,16,55,0.60
2007,12,08,16,56,0.60
2007,12,08,16,57,0.50
2007,12,08,16,58,0.50
2007,12,08,16,59,0.50
2007,12,08,17,00,0.40
2007,12,08,17,01,0.40
2007,12,08,17,02,0.40
2007,12,08,17,03,0.40
2007,12,08,17,04,0.40
2007,12,08,17,05,0.30
2007,12,08,17,06,0.30
2007,12,08,17,07,0.30
2007,12,08,17,08,0.30
2007,12,08,17,09,0.20
2007,12,08,17,10,0.20
2007,12,08,17,11,0.20
2007,12,08,17,12,0.20
2007,12,08,17,13,0.20
2007,12,08,17,14,0.20
2007,12,08,17,15,0.20
2007,12,08,17,16,0.20
2007,12,08,17,17,0.10
2007,12,08,17,18,0.10
2007,12,08,17,19,0.10
2007,12,08,17,20,0.10
2007,12,08,17,21,0.10
2007,12,08,17,22,0.10
2007,12,08,17,23,0.00
2007,12,08,17,24,-0.10
2007,12,08,17,25,-0.10
2007,12,08,17,26,-0.10
2007,12,08,17,27,-0.10
2007,12,08,17,28,-0.10
2007,12,08,17,29,-0.10
2007,12,08,17,30,-0.10
2007,12,08,17,31,-0.10
2007,12,08,17,32,-0.10
2007,12,08,17,33,-0.10
2007,12,08,17,34,-0.20
2007,12,08,17,35,-0.20
2007,12,08,17,36,-0.20
2007,12,08,17,37,-0.30
2007,12,08,17,38,-0.30
2007,12,08,17,39,-0.30
2007,12,08,17,40,-0.40
2007,12,08,17,41,-0.40
2007,12,08,17,42,-0.40
2007,12,08,17,43,-0.40
2007,12,08,17,44,-0.40
2007,12,08,17,45,-0.40
2007,12,08,17,46,-0.50
2007,12,08,17,47,-0.60
2007,12,08,17,48,-0.60